TimeEST,TemperatureF,Dew PointF,Humidity,Sea Level PressureIn,VisibilityMPH,Wind Direction,Wind SpeedMPH,Gust SpeedMPH,PrecipitationIn,Events,Conditions,WindDirDegrees,DateUTC
12:53 AM,57.0,51.1,81,30.18,10.0,South,6.9,-,N/A,,Clear,180,2012-12-04 05:53:00
1:53 AM,57.9,51.1,78,30.18,10.0,South,6.9,-,N/A,,Clear,180,2012-12-04 06:53:00
2:53 AM,57.0,48.9,74,30.19,10.0,South,6.9,-,N/A,,Clear,170,2012-12-04 07:53:00
3:53 AM,57.0,48.0,72,30.18,10.0,South,8.1,-,N/A,,Clear,180,2012-12-04 08:53:00
4:53 AM,57.9,48.0,70,30.17,10.0,South,8.1,-,N/A,,Partly Cloudy,170,2012-12-04 09:53:00
5:53 AM,57.0,46.9,69,30.17,10.0,South,8.1,-,N/A,,Clear,170,2012-12-04 10:53:00
6:53 AM,55.9,46.9,72,30.17,10.0,South,6.9,-,N/A,,Partly Cloudy,180,2012-12-04 11:53:00
7:53 AM,55.9,46.9,72,30.18,10.0,SSE,5.8,-,N/A,,Partly Cloudy,160,2012-12-04 12:53:00
8:53 AM,59.0,48.9,69,30.18,10.0,South,9.2,-,N/A,,Scattered Clouds,180,2012-12-04 13:53:00
9:53 AM,61.0,50.0,67,30.18,10.0,South,9.2,-,N/A,,Overcast,180,2012-12-04 14:53:00
10:53 AM,63.0,51.1,65,30.16,10.0,South,13.8,20.7,N/A,,Overcast,190,2012-12-04 15:53:00
11:53 AM,62.1,53.1,72,30.14,5.0,SW,8.1,19.6,0.01,Rain,Light Rain,220,2012-12-04 16:53:00
12:53 PM,62.1,53.1,72,30.12,10.0,SSW,10.4,-,0.00,Rain,Light Rain,200,2012-12-04 17:53:00
1:23 PM,60.8,55.4,82,30.11,7.0,SSW,9.2,-,0.02,Rain,Light Rain,200,2012-12-04 18:23:00
1:53 PM,60.1,55.0,83,30.10,10.0,South,5.8,-,0.03,,Overcast,180,2012-12-04 18:53:00
2:53 PM,61.0,55.9,83,30.08,10.0,South,5.8,-,0.00,,Overcast,190,2012-12-04 19:53:00
3:53 PM,62.1,55.9,80,30.07,10.0,South,9.2,-,0.00,Rain,Light Rain,190,2012-12-04 20:53:00
4:53 PM,62.1,55.0,78,30.07,10.0,SSW,8.1,-,0.00,,Overcast,200,2012-12-04 21:53:00
5:53 PM,61.0,55.0,81,30.06,10.0,South,6.9,-,N/A,,Overcast,180,2012-12-04 22:53:00
6:53 PM,61.0,55.0,81,30.05,10.0,SSW,6.9,-,0.00,,Overcast,200,2012-12-04 23:53:00
7:53 PM,60.1,55.0,83,30.06,10.0,West,5.8,-,0.03,Rain,Light Rain,270,2012-12-05 00:53:00
8:40 PM,57.2,57.2,100,30.09,2.5,West,9.2,-,0.08,Rain,Rain,280,2012-12-05 01:40:00
8:53 PM,57.9,55.9,93,30.10,2.5,NW,19.6,26.5,0.13,Rain,Heavy Rain,320,2012-12-05 01:53:00
9:04 PM,53.6,51.8,94,30.13,3.0,NW,20.7,29.9,0.03,Rain,Rain,310,2012-12-05 02:04:00
9:30 PM,48.2,46.4,93,30.16,5.0,NW,13.8,24.2,0.08,Rain,Light Rain,310,2012-12-05 02:30:00
9:53 PM,46.9,45.0,93,30.18,6.0,WNW,8.1,-,0.10,Rain,Light Rain,300,2012-12-05 02:53:00
10:10 PM,46.4,44.6,93,30.18,4.0,NW,6.9,-,0.02,Rain,Light Rain,320,2012-12-05 03:10:00
10:21 PM,46.4,44.6,93,30.18,4.0,NW,4.6,-,0.03,Rain,Light Rain,310,2012-12-05 03:21:00
10:53 PM,45.0,44.1,97,30.18,10.0,Calm,Calm,-,0.04,Rain,Light Rain,0,2012-12-05 03:53:00
11:53 PM,44.1,42.1,93,30.20,10.0,WNW,5.8,-,0.01,Rain,Light Rain,300,2012-12-05 04:53:00